TimeCST,TemperatureF,Dew PointF,Humidity,Sea Level PressureIn,VisibilityMPH,Wind Direction,Wind SpeedMPH,Gust SpeedMPH,PrecipitationIn,Events,Conditions,WindDirDegrees,DateUTC
12:53 AM,35.1,30.0,82,29.92,10.0,SSE,6.9,-,N/A,,Clear,150,2013-11-03 05:53:00
1:53 AM,36.0,30.9,82,29.92,10.0,SE,9.2,-,N/A,,Clear,140,2013-11-03 06:53:00
1:53 AM,37.0,32.0,82,29.91,10.0,SSE,9.2,-,N/A,,Mostly Cloudy,160,2013-11-03 07:53:00
2:53 AM,39.0,33.1,79,29.90,10.0,SE,10.4,-,N/A,,Mostly Cloudy,140,2013-11-03 08:53:00
3:53 AM,37.9,33.1,83,29.86,10.0,SE,11.5,-,N/A,,Partly Cloudy,130,2013-11-03 09:53:00
4:53 AM,39.9,34.0,79,29.85,10.0,SE,12.7,-,N/A,,Clear,130,2013-11-03 10:53:00
5:53 AM,39.9,34.0,79,29.82,10.0,SE,15.0,-,N/A,,Mostly Cloudy,130,2013-11-03 11:53:00
6:53 AM,39.9,33.1,77,29.81,10.0,SE,16.1,-,N/A,,Mostly Cloudy,130,2013-11-03 12:53:00
7:53 AM,42.1,33.1,70,29.77,10.0,ESE,20.7,-,N/A,,Overcast,120,2013-11-03 13:53:00
8:53 AM,44.1,33.1,65,29.75,10.0,SE,23.0,28.8,N/A,,Overcast,130,2013-11-03 14:53:00
9:53 AM,48.9,33.1,54,29.71,10.0,SE,24.2,35.7,N/A,,Overcast,130,2013-11-03 15:53:00
10:53 AM,52.0,30.9,45,29.68,10.0,SSE,27.6,39.1,N/A,,Overcast,150,2013-11-03 16:53:00
11:53 AM,52.0,30.0,43,29.65,10.0,SSE,32.2,39.1,N/A,,Overcast,150,2013-11-03 17:53:00
12:53 PM,53.1,30.0,41,29.63,10.0,SSE,24.2,32.2,N/A,,Overcast,150,2013-11-03 18:53:00
1:53 PM,53.1,30.0,41,29.62,10.0,South,25.3,36.8,N/A,,Mostly Cloudy,170,2013-11-03 19:53:00
2:53 PM,53.1,32.0,45,29.62,10.0,South,24.2,40.3,N/A,,Overcast,170,2013-11-03 20:53:00
3:53 PM,54.0,32.0,43,29.62,10.0,SSE,21.9,35.7,N/A,,Mostly Cloudy,160,2013-11-03 21:53:00
4:53 PM,52.0,32.0,47,29.61,10.0,SSE,19.6,27.6,N/A,,Mostly Cloudy,160,2013-11-03 22:53:00
5:53 PM,50.0,32.0,50,29.62,10.0,SSE,15.0,-,N/A,,Mostly Cloudy,150,2013-11-03 23:53:00
6:53 PM,46.9,32.0,56,29.62,10.0,SE,12.7,-,N/A,,Scattered Clouds,140,2013-11-04 00:53:00
7:53 PM,46.0,32.0,58,29.62,10.0,SE,11.5,-,N/A,,Overcast,140,2013-11-04 01:53:00
8:53 PM,45.0,33.1,63,29.62,10.0,SE,9.2,-,N/A,,Overcast,140,2013-11-04 02:53:00
9:53 PM,45.0,33.1,63,29.62,10.0,SE,8.1,-,N/A,,Overcast,140,2013-11-04 03:53:00
10:53 PM,48.9,33.1,54,29.62,10.0,South,16.1,-,N/A,,Overcast,180,2013-11-04 04:53:00